www.pogodaiklimat.ru

Погода и климат >> Архив погоды >> Аргентина >> Сан-Мигель-де-Тукуман


ПОГОДА в Сан-Мигель-де-Тукумане

  • Прогноз погоды в Сан-Мигель-де-Тукумане
  • Монитор погоды в Сан-Мигель-де-Тукумане

АРХИВ ПОГОДЫ в Сан-Мигель-де-Тукумане

Время (UTC), дата Ветер
(напр.,м/с)
 
Видим.   Явления Облачность Т
(С)
Тd
(С)
f
(%)
Тe
(С)
Тes
(С)
Комфортность P
(гПа)
Po
(гПа)
Тmin
(С)
Tmax
(С)
R
(мм)
R24
(мм)
S
(см)
06 17.02 штиль 0 12 км 5/0
[Ac trans]
+19.4 +17.8 90 +21 +21 комфорт 1012.1 961.7
09 17.02 СВ 2 12 км 4/0
[Ac trans]
+19.6 +18.2 92 +23 +23 комфорт 1010.9 960.6
12 17.02 штиль 0 12 км 5/5 1350 м
[Sc]
+22.0 +19.4 85 +27 +31 душно 1012.0 961.7 +19.1 +25.2
15 17.02 штиль 0 12 км 3/3 1050 м
[Cu hum]
+28.1 +18.9 57 +33 +51 опасность
солнечного
удара
1011.3 961.0
18 17.02 ЮВ 4 15 км 4/4 1050 м
[Cu hum]
+30.2 +19.7 53 +36 +43 очень
душно
1008.8 958.8
21 17.02 В 5 15 км 1/1 1200 м
[Sc diur, vesp]
+30.2 +19.5 53 +36 +38 очень
душно
1006.6 956.6
00 18.02 В 3 12 км 4/0
[Ac trans]
+25.9 +19.9 70 +32 +32 очень
душно
1007.4 957.3 +22.0 +30.8
03 18.02 С 4 12 км 6/3 1200 м
[Sc Ac trans]
+26.4 +19.0 64 +32 +32 очень
душно
1008.1 958.5
06 18.02 С 3 12 км 5/1 1200 м
[Sc Ac trans]
+23.8 +18.6 73 +28 +28 душно 1006.7 957.2
09 18.02 С 4 12 км ясно +22.5 +17.8 75 +28 +28 душно 1005.0 955.4
12 18.02 С 3 12 км ясно +23.4 +18.8 75 +30 +33 очень
душно
1007.0 957.0 +21.6 +26.4
15 18.02 ЮВ 2 12 км 1/1 1200 м
[Cu hum]
+30.2 +19.2 52 +36 +52 опасность
солнечного
удара
1006.3 957.0
18 18.02 В 4 12 км 1/1 1200 м
[Cu hum]
+32.0 +21.0 52 +39 +50 очень
душно
1004.5 955.2
21 18.02 В 4 12 км 3/3 1200 м
[Cu hum]
+31.3 +20.1 51 +38 +39 очень
душно
1003.7 954.2
00 19.02 штиль 0 12 км 3/0
[Ac trans]
+28.7 +21.0 63 +36 +36 очень
душно
1005.4 955.8 +23.4 +32.9
03 19.02 С 3 12 км 1/0
[Cs]
+23.4 +20.7 85 +31 +31 очень
душно
1006.3 956.8
06 19.02 СЗ 2 12 км ясно +22.0 +20.0 88 +28 +28 душно 1005.9 956.4
09 19.02 С 3 10 км ясно +21.4 +19.6 89 +26 +26 душно 1006.1 956.5
12 19.02 СЗ 3 15 км ясно +24.8 +20.8 78 +31 +35 очень
душно
1007.6 958.0 +21.0 +28.7
15 19.02 С 4 15 км ясно +31.4 +21.3 55 +39 +51 опасность
солнечного
удара
1007.6 958.1
18 19.02 ЮВ 4 15 км 1/1 1500 м
[Cb calv]
+33.4 +22.0 51 +42 +52 опасность
перегрева
1005.8 956.4
21 19.02 СВ 5 15 км 4/1 1200 м
[Cu med, cong Cs]
+33.3 +23.0 55 +44 +45 опасность
перегрева
1003.7 954.4
00 20.02 СВ 3 15 км 3/0
[Cs]
+28.6 +22.4 69 +37 +37 очень
душно
1004.5 955.0 +24.8 +34.0
03 20.02 С 3 15 км ясно +26.4 +22.1 77 +34 +34 очень
душно
1006.4 957.2
06 20.02 С 4 15 км ясно +25.4 +21.3 78 +32 +32 очень
душно
1005.7 956.6
09 20.02 В 1 15 км ясно +23.2 +20.2 83 +30 +30 очень
душно
1005.9 956.6
12 20.02 С 3 15 км ясно +26.4 +21.4 74 +34 +37 очень
душно
1007.0 957.4 +22.6 +28.6
15 20.02 ЮВ 2 15 км 1/1 1200 м
[Cu hum]
+31.4 +22.1 58 +40 +58 опасность
солнечного
удара
1006.2 957.0
18 20.02 В 5 15 км 1/1 1500 м
[Cb calv]
+34.8 +22.7 50 +45 +52 опасность
перегрева
1003.9 955.0
21 20.02 В 5 15 км 1/1 1200 м
[Cu hum]
+34.6 +22.1 48 +43 +45 опасность
перегрева
1001.2 952.2
00 21.02 штиль 0 50 км ?/? +31.0 +21.8 58 +39 +39 очень
душно
1002.7 953.6 +26.4 +35.5
03 21.02 С 3 12 км ясно +28.6 +21.3 65 +36 +36 очень
душно
1004.0 955.0
06 21.02 С 4 12 км ясно +26.6 +20.9 71 +33 +33 очень
душно
1003.2 954.4
09 21.02 С 4 12 км ясно +25.2 +20.8 77 +32 +32 очень
душно
1003.8 954.9
12 21.02 С 3 15 км ясно +28.1 +21.7 68 +36 +40 очень
душно
1005.4 956.2 +23.0 +31.0
15 21.02 В 2 15 км 1/1 1050 м
[Cu hum]
+33.0 +22.7 55 +43 +59 опасность
перегрева
1005.4 956.5
18 21.02 В 9 15 км 1/1 1050 м
[Cu med, cong]
+36.8 +21.8 42 +45 +47 опасность
перегрева
1003.4 954.8
21 21.02 В 7 15 км 1/1 1050 м
[Cu hum]
+36.0 +21.6 43 +44 +44 опасность
перегрева
1001.9 953.2
00 22.02 В 4 10 км 3/1 1200 м
[Sc Cs]
+29.6 +24.3 73 +41 +41 опасность
перегрева
1003.4 954.2 +28.1 +37.4
03 22.02 С 3 12 км ясно +27.2 +23.4 80 +37 +37 очень
душно
1004.5 955.6
06 22.02 С 3 12 км ясно +26.6 +21.7 75 +34 +34 очень
душно
1003.6 955.0
09 22.02 С 4 15 км ясно +25.2 +21.4 79 +32 +32 очень
душно
1004.1 955.3
12 22.02 С 5 15 км ясно +28.8 +21.4 64 +36 +39 очень
душно
1005.2 956.1 +23.7 +29.6
15 22.02 нст 2 15 км ясно +34.5 +22.3 49 +43 +61 опасность
перегрева
1004.4 955.6
18 22.02 В 4 15 км 1/1 1050 м
[Cu hum]
+36.4 +24.1 49 +48 +59 опасность
перегрева
1002.8 954.2
21 22.02 В 4 15 км ясно +37.5 +21.6 40 +45 +47 опасность
перегрева
1001.0 952.4
00 23.02 З 4 15 км 1/0
[Cs]
+31.0 +25.5 73 +46 +46 опасность
перегрева
1002.4 953.4 +28.8 +38.0
03 23.02 С 4 15 км ясно +29.4 +25.8 81 +44 +44 опасность
перегрева
1003.1 954.5
06 23.02 С 3 12 км ясно +26.9 +21.0 70 +34 +34 очень
душно
1001.5 953.0
09 23.02 С 4 12 км 1/0
[Cs]
+25.0 +20.4 76 +31 +31 очень
душно
1000.8 952.2
12 23.02 С 5 15 км ясно +28.2 +20.5 63 +35 +37 очень
душно
1001.1 952.2 +24.6 +31.2
15 23.02 С 2 15 км ясно +35.4 +21.0 43 +42 +62 опасность
перегрева
999.3 951.0
18 23.02 В 5 15 км ясно +37.2 +21.9 41 +45 +55 опасность
перегрева
997.1 948.8
21 23.02 СВ 7 15 км ясно +37.5 +20.0 36 +43 +44 опасность
перегрева
994.7 946.4
03 24.02 СВ 2 12 км 4/0
[Ac As]
+28.8 +22.5 69 +38 +38 очень
душно
997.5 949.2

 

Местоположение метеостанции Сан-Мигель-де-Тукуман (Аргентина): широта -26.85 долгота -65.09 высота над уровнем моря 450 м.

В архиве по умолчанию представлена погода в Сан-Мигель-де-Тукумане за последнюю неделю. Архивные данные за месяц целиком и за предыдущие месяцы, начиная с января 2011 года, Вы можете получить, выбрав интересующий диапазон дат из раскрывающегося списка и нажав кнопку "Ввод!".


*Определитесь, кто Вы:
робот инопланетянин человек

Внимание! Время в таблицах - всемирное. Для получения местного времени необходимо прибавить поправку, которая равна -3 ч.

Смотрите также архив погоды в соседних городах и на ближайших метеорологических станциях:

Погода в Сантьяго-дель-Эстеро (Аргентина) (128 км)
Погода в Сан-Фернандо-дель-Валье-де-Катамарке (Аргентина) (206 км)
Погода в Сальте (Аргентина) (226 км)
Погода в Сан-Сальвадор-де-Жужуе (Аргентина) (275 км)
Погода в Ла-Риохе (Аргентина) (328 км)
Погода в Вилла де Мария дель Рио Секо (Аргентина) (366 км)
Погода в Чамикале (Аргентина) (407 км)
Погода в Сан-Рамон-де-ла-Нуэва-Оране (Аргентина) (419 км)
Погода в Сересе (Аргентина) (456 км)
Погода в Пресиденсиа-Роке-Саэнс-Пеньи (Аргентина) (458 км)

Пояснения к столбцам:

Ветер - указаны скорость ветра в м/с - средняя за 10 мин, порывы в срок и между сроками (в фигурных скобках) и направление, откуда дует ветер: С - северный, СВ - северо-восточный, В - восточный, ЮВ - юго-восточный, Ю - южный, ЮЗ - юго-западный, З - западный, СЗ - северо-западный.
Видимость - горизонтальная дальность видимости в метрах или километрах. При видимости от 1 до 10 км при отсутствии осадков обычно наблюдается дымка, при ухудшении видимости до 1 км и менее - туман. В сухую погоду видимость может ухудшаться дымом, пылью или мглою.
Явления - указаны атмосферные явления, наблюдавшиеся в срок или в последний час перед сроком; фигурными скобками обозначены явления, наблюдавшиеся между сроками (за 1-3 часа до срока); квадратными скобками обозначены град или гололедные отложения с указанием их диаметра в мм.
Облачность - указаны через наклонную черту общая и нижняя облачность в баллах и высота нижней границы облаков в метрах; квадратными скобками обозначены формы облаков: Ci - перистые, Cs - перисто-слоистые, Cc - перисто-кучевые, Ac - высококучевые, As - высокослоистые, Sc - слоисто-кучевые, Ns - слоисто-дождевые, Cu - кучевые, Cb - кучево-дождевые. Подробнее классификацию облаков см. в Атласе облаков (PDF).
T - Температура воздуха - температура, измеренная на высоте 2 м над землей.
Td - Температура точки росы - температура, при понижении до которой содержащийся в воздухе водяной пар достигнет насыщения.
f - Относительная влажность воздуха - влажноcть воздуха, измеренная на высоте 2 м над землей.
Te - Эффективная температура - температура, которую ощущает одетый по сезону человек в тени. Характеристика душности погоды. При расчете учитывается влияние влажности воздуха и скорости ветра на теплоощущения человека.
Tes - Эффективная температура на солнце - температура, которую ощущает человек, с поправкой на солнечный нагрев. Характеристика знойности погоды. Зависит от высоты солнца над горизонтом, облачности и скорости ветра. Ночью, в пасмурную погоду, а также при ветре 12 м/с и более поправка равна нулю.
P - Атмосферное давление - приведенное к уровню моря атмосферное давление.
Po - Атмосферное давление - измеренное на уровне метеостанции атмосферное давление.
Tmin - Минимальная температура - минимум температуры воздуха на высоте 2 м над землей.
Tmax - Максимальная температура - максимум температуры воздуха на высоте 2 м над землей.
R - Количество осадков - Количество выпавших осадков за период времени, мм. При наведении курсора мыши на число - период времени, за который выпало указанное количество осадков.
R24 - Количество осадков - Количество выпавших осадков за 24 часа, мм.
S - Снежный покров - Высота снежного покрова, см. При наведении курсора мыши на число - состояние снежного покрова и степень покрытия местности в баллах.